Allen, KY

4:15 PM EDT on March 29, 2017 (GMT -0400)
Toms Creek rd | | Change Station

Elev 689 ft 37.59 °N, 82.64 °W | Updated 26 seconds ago

Mostly Cloudy
Mostly Cloudy
68.9 °F
Feels Like 68.9 °F
N
5.0
Wind Variable Wind from ESE

Today
High -- | Low -- °F
--% Chance of Precip.
Yesterday
High -- | Low -- °F
Precip. -- in
Pressure 30.12 in
Visibility 10.0 miles
Clouds Scattered Clouds 3300 ft
Dew Point 51 °F
Humidity 54%
Rainfall 0.00 in
Snow Depth Not available.
7:20 AM 7:51 PM
Waxing Crescent, 4% visible
METAR KSJS 291955Z AUTO 34003KT 10SM SCT033 18/09 A3012 RMK AO2 T01750093
Pressure 30.12 in
Visibility 10.0 miles
Clouds Scattered Clouds 3300 ft
Dew Point 51 °F
Humidity 54%
Rainfall 0.00 in
Snow Depth Not available.
7:20 AM 7:51 PM
Waxing Crescent, 4% visible
METAR KSJS 291955Z AUTO 34003KT 10SM SCT033 18/09 A3012 RMK AO2 T01750093

Get Severe Weather Alerts

Thanks for signing up!

Be on the lookout for a verification email in your inbox.

You'll start receiving the daily forecast at 8 AM.

×

10-Day Weather Forecast

Almanac

Astronomy

Mar. 29, 2017 Rise Set
Actual Time
Civil Twilight
Nautical Twilight
Astronomical Twilight
Moon
Length of Visible Light
Length of Day
Tomorrow will be .
, % of the Moon is Illuminated

Today's Extremes

State Highs State Lows

Community

WunderPhotos

Upload Photos

1,962,540 photos uploaded!

WunderBlog® & News

Nearby

Air Quality

  Air Quality AQ Index Pollutant
Not available.

Snow Depth

Station Depth Elevation

Earthquake Activity

City Distance Mag. Time & Date
Minimum magnitude displayed is 2.5.

Earthquake Activity

City Distance Mag. Time & Date
Minimum magnitude displayed is 2.5.

Coastal Water Temperatures

Place Temperature

Stations

Nearby Weather Stations

Station Location Temp. Windchill Dew Point Humidity Wind Precip. Elev Updated Type
                   

Watches & Warnings

There are currently no watches in effect.